OBJECT A, 63291

Orbit data source: Space-Track

You're viewing an Uncataloged Satellite

Recently launched and/or uncataloged satellites may have evolving metadata. Metadata may include but not limited to: Owner, Maufacturer, Bus, Motor, and Mission.

OBJECT A, 63291 is a satellite owned by Yunyao yuhang (CN) in SSO that was launched on Mon, 17 Mar 2025 UTC via a GUSHENXING 1 launch vehicle from the Jiuquan Satellite Launch Center, China (JSC). Unknown objects in Earth's orbit typically refer to objects detected orbiting the Earth but have not yet been identified or cataloged. These objects could be anything from previously untracked satellites, spent rocket stages, debris from satellite collisions, or even natural meteoroids temporarily captured by Earth's gravity.

Loading next visibility...
Identifier
63291, 2025-055A
Orbit
SSO
Last TLE update
1 day ago
Origin
Flag of CNYYAO (CN / PRC)
Manufacturer
Changguang WJ
Mission
Operational spacecraft
Bus & Motor
YY-1, Unknown motor
Mass
~50 kg wet, ~50 kg dry
Launch date (UTC)
2025-03-17 (1 month ago)
Launch vehicle
GUSHENXING 1
Launch site
Jiuquan Satellite Launch Center, China (JSC)
Object type
Unknown
Shape & HBR
Unknown
Radar Cross Section
Medium (>0.1 m² and <1 m²)

Expand to show TLE details & history

TLE from 1 day ago
0 OBJECT A
1 63291U 25055A   25119.11468174  .00015438  00000-0  92428-3 0  9997
2 63291  97.6070 254.2261 0013902 146.4070 213.8043 15.11024516  6464
Epoch: 2025-04-29T02:45Z
Definitive object data (Epoch: 2025-04-29T02:45:08.502Z)
Latitude
-0.0001°
Longitude
-4.3783°
Altitude
544.136 km
Speed
7.586 km/s
True Right ascension
16h 56m 54s
True Declination
0° 00' 00"
Sunlit
Object was in full shadow at TLE epoch
Visualization TLE readout
Latitude
71.00099°
Longitude
-160.35093°
Altitude
537.268 km
Speed
7.605 km/s
Apparent Right ascension
06h 34m 16s
Apparent Declination
18° 52' 00"
Sunlit
Object is in daylight
Visualization observer readout
Local Sidereal Time
18:34:52
Azimuth
0.162° NNE
Elevation
-31.217°
Doppler factor
1
Orbital elements
Apogee altitude
539.665 km
Perigee altitude
520.457 km
Semi-major axis
6,908.198 km
Eccentricity
0.0013902
Inclination
97.607°
RAAN
254.2261°
Arg. of periapsis
146.407°
True anomaly
213.7158°
Mean anomaly
213.8043°
Eccentric anomaly
213.76004°
Mean motion
3.78004 °/min
BSTAR
0.00092428
Orbital period
95.24 mins
Loading maneuver chart data...
Loading SW <> Apogee altitude chart data...
Loading historical data...
Loading historical data...
Loading historical data...
Loading historical data...
Loading historical data...
Loading historical data...
Loading historical data...

OBJECT A Visibility forecast

Observer location: undefined°, undefined°

Span
Click to sort rows by Start time (UTC) header in descending order
Start Az.
Max El. time (UTC)
Max El. Az.
Max El.
End time (UTC)
End Az.
5 mins2025-04-30 22:14:45.896Z342.909° N2025-04-30 22:16:45.896Z270.837° WNW34.49°2025-04-30 22:19:45.896Z215.159° SW
6 mins2025-05-01 08:55:45.896Z160.491° S2025-05-01 08:57:45.896Z125.155° SE43.805°2025-05-01 09:01:45.896Z350.543° N
|